EW5226 Weather Reports


Display with metric or nautical units.
time (UTC)temp
F
wind
direction
speed
MPH
gust
MPH
rain 1hr
in
rain 24hr
in
rain mn
in
humidity
%
barometer
mb
20260507021538 74 8 0.0 1.0 0.00 0.00 0.00 90 1016.2
20260507020042 74 48 0.0 2.0 0.00 0.00 0.00 91 1016.1
20260507014538 75 27 0.0 2.0 0.00 0.00 0.00 90 1016.1
20260507013047 75 124 0.0 0.0 0.00 0.00 0.00 90 1016.2
20260507011534 75 124 0.0 1.0 0.00 0.00 0.00 89 1016.0
20260507010037 76 302 0.0 2.0 0.00 0.00 0.00 87 1016.0
20260507004533 76 30 0.0 0.0 0.00 0.00 0.00 86 1015.9
20260507003032 77 30 0.0 1.0 0.00 0.00 0.00 84 1015.6
20260507001533 79 68 0.0 1.0 0.00 0.00 0.00 82 1015.6
20260507000031 80 63 0.0 2.0 0.00 0.00 0.00 79 1015.5
20260506234536 81 149 0.0 1.0 0.00 0.00 0.00 77 1015.4
20260506233049 83 278 0.0 2.0 0.00 0.00 0.00 72 1015.4
20260506231531 86 344 0.0 2.0 0.00 0.00 0.00 71 1015.3
20260506230029 88 307 0.0 1.0 0.00 0.00 0.00 66 1015.2
20260506224529 89 299 0.0 3.0 0.00 0.00 0.00 67 1015.1
20260506223028 89 305 2.0 9.0 0.00 0.00 0.00 66 1015.0
20260506221528 93 316 0.0 3.0 0.00 0.00 0.00 59 1015.0
20260506220029 93 79 0.0 3.0 0.00 0.00 0.00 59 1015.0
20260506214526 93 222 2.0 6.0 0.00 0.00 0.00 54 1014.9
20260506213026 93 13 0.0 3.0 0.00 0.00 0.00 49 1015.0
20260506211527 94 351 1.0 5.0 0.00 0.00 0.00 49 1015.1
20260506210031 93 251 1.0 4.0 0.00 0.00 0.00 50 1015.0
20260506204523 92 245 0.0 7.0 0.00 0.00 0.00 53 1015.0
20260506203021 93 313 0.0 4.0 0.00 0.00 0.00 47 1015.0
20260506201524 94 288 1.0 4.0 0.00 0.00 0.00 46 1015.1
20260506200034 93 358 0.0 7.0 0.00 0.00 0.00 47 1015.2
20260506194518 95 30 0.0 5.0 0.00 0.00 0.00 44 1015.2
20260506193016 93 199 0.0 3.0 0.00 0.00 0.00 54 1015.3
20260506191515 92 70 1.0 4.0 0.00 0.00 0.00 50 1015.5
20260506190014 93 278 1.0 7.0 0.00 0.00 0.00 50 1015.8
20260506184512 95 219 0.0 3.0 0.00 0.00 0.00 53 1016.0
20260506183010 95 250 0.0 6.0 0.00 0.00 0.00 49 1016.1
20260506181514 95 226 0.0 7.0 0.00 0.00 0.00 48 1016.2
20260506180016 95 115 0.0 4.0 0.00 0.00 0.00 46 1016.4
20260506174505 94 234 0.0 3.0 0.00 0.00 0.00 46 1016.6
20260506173003 92 146 0.0 2.0 0.00 0.00 0.00 50 1016.8
20260506171502 92 224 2.0 6.0 0.00 0.00 0.00 53 1017.0
20260506170110 92 283 0.0 4.0 0.00 0.00 0.00 52 1017.1
20260506164618 91 210 0.0 3.0 0.00 0.00 0.00 54 1017.2
20260506163102 91 245 1.0 3.0 0.00 0.00 0.00 56 1017.3
20260506161556 90 131 1.0 4.0 0.00 0.00 0.00 56 1017.4
20260506160106 91 129 0.0 2.0 0.00 0.00 0.00 53 1017.5
20260506154554 91 147 0.0 1.0 0.00 0.00 0.00 55 1017.4
20260506153049 89 297 0.0 1.0 0.00 0.00 0.00 59 1017.4
20260506151545 88 276 0.0 3.0 0.00 0.00 0.00 62 1017.4
20260506150044 88 21 0.0 2.0 0.00 0.00 0.00 61 1017.4
20260506144541 86 356 0.0 2.0 0.00 0.00 0.00 64 1017.3
20260506143038 84 224 0.0 5.0 0.00 0.00 0.00 70 1017.4
20260506141539 83 168 0.0 4.0 0.00 0.00 0.00 72 1017.4
20260506140031 83 205 0.0 2.0 0.00 0.00 0.00 72 1017.4
20260506134527 81 236 0.0 2.0 0.00 0.00 0.00 75 1017.3
20260506133025 80 231 0.0 5.0 0.00 0.00 0.00 76 1017.3
20260506131528 79 27 0.0 1.0 0.00 0.00 0.00 77 1017.3
20260506130021 78 96 0.0 2.0 0.00 0.00 0.00 79 1017.2
20260506124515 76 163 0.0 1.0 0.00 0.00 0.00 81 1017.1
20260506123011 74 63 0.0 1.0 0.00 0.00 0.00 83 1017.0
20260506121507 70 63 0.0 0.0 0.00 0.00 0.00 87 1016.9
20260506120004 68 63 0.0 0.0 0.00 0.00 0.00 92 1016.6
20260506114503 66 63 0.0 0.0 0.00 0.00 0.00 93 1016.4
20260506113002 64 63 0.0 0.0 0.00 0.00 0.00 93 1016.3
20260506111502 63 63 0.0 0.0 0.00 0.00 0.00 93 1016.3
20260506110001 63 63 0.0 0.0 0.00 0.00 0.00 93 1016.2
20260506104602 63 63 0.0 1.0 0.00 0.00 0.00 93 1016.1
20260506103100 63 63 0.0 0.0 0.00 0.00 0.00 93 1015.9
20260506101559 63 63 0.0 0.0 0.00 0.00 0.00 93 1015.8
20260506100057 63 63 0.0 1.0 0.00 0.00 0.00 92 1015.8
20260506094556 63 63 0.0 0.0 0.00 0.00 0.00 92 1015.8
20260506093055 63 63 0.0 0.0 0.00 0.00 0.00 92 1015.8
20260506091555 63 63 0.0 0.0 0.00 0.00 0.00 91 1015.8
20260506090052 64 63 0.0 0.0 0.00 0.00 0.00 91 1015.6
20260506084551 64 63 0.0 0.0 0.00 0.00 0.00 91 1015.5
20260506083051 64 63 0.0 0.0 0.00 0.00 0.00 90 1015.7
20260506081552 64 63 0.0 0.0 0.00 0.00 0.00 90 1015.7
20260506073050 64 63 0.0 0.0 0.00 0.00 0.00 89 1015.8
20260506071550 65 63 0.0 0.0 0.00 0.00 0.00 89 1016.0
20260506070104 65 63 0.0 0.0 0.00 0.00 0.00 88 1016.0
20260506061538 66 63 0.0 0.0 0.00 0.00 0.00 86 1016.4
20260506044536 68 63 0.0 0.0 0.00 0.00 0.00 83 1016.9
20260506043025 68 63 0.0 0.0 0.00 0.00 0.00 84 1017.1
20260506041524 68 63 0.0 0.0 0.00 0.00 0.00 85 1017.1
20260506040020 68 63 0.0 0.0 0.00 0.00 0.00 86 1016.8
20260506034519 69 63 0.0 0.0 0.00 0.00 0.00 87 1016.8
20260506033018 69 63 0.0 0.0 0.00 0.00 0.00 86 1016.6
20260506031519 70 63 0.0 0.0 0.00 0.00 0.00 85 1016.5
20260506030020 70 63 0.0 0.0 0.00 0.00 0.00 84 1016.6
20260506024521 71 63 0.0 1.0 0.00 0.00 0.00 83 1016.3
20260506023017 71 47 0.0 1.0 0.00 0.00 0.00 84 1016.3